CST,Max TemperatureF,Mean TemperatureF,Min TemperatureF,Max Dew PointF,MeanDew PointF,Min DewpointF,Max Humidity, Mean Humidity, Min Humidity, Max Sea Level PressureIn, Mean Sea Level PressureIn, Min Sea Level PressureIn, Max VisibilityMiles, Mean VisibilityMiles, Min VisibilityMiles, Max Wind SpeedMPH, Mean Wind SpeedMPH, Max Gust SpeedMPH,PrecipitationIn, CloudCover, Events, WindDirDegrees
2012-11-1,43,36,29,38,30,24,95,75,50,30.07,30.02,29.97,10,10,5,23,12,29,0.00,3,,343
2012-11-2,37,32,27,28,26,23,84,75,65,30.15,30.08,30.03,10,10,10,12,7,,0.00,4,,69
2012-11-3,44,38,31,38,32,29,100,79,60,30.20,30.17,30.14,10,9,2,9,3,,0.00,8,Rain,280
2012-11-4,39,36,34,37,36,34,100,98,93,30.19,30.14,30.09,7,4,0,8,5,,0.03,8,Fog-Rain,17
2012-11-5,38,36,34,36,35,33,100,98,91,30.17,30.10,29.91,10,4,0,21,8,30,0.01,8,Fog-Rain,291
2012-11-6,43,39,35,37,34,32,97,81,64,30.05,29.92,29.82,10,9,5,28,18,36,0.00,7,Rain,296
2012-11-7,46,38,30,33,31,28,96,78,52,30.13,30.06,29.96,10,10,10,16,9,16,0.00,1,,216
2012-11-8,54,44,33,37,33,31,98,74,42,30.00,29.93,29.84,10,9,5,21,14,31,0.00,2,,328
2012-11-9,52,43,34,41,38,34,100,87,60,29.99,29.90,29.78,10,5,0,17,12,23,0.00,7,Fog,58
2012-11-10,62,50,37,54,46,37,99,88,62,29.77,29.57,29.47,10,6,2,25,14,29,0.25,6,Rain-Thunderstorm,168
2012-11-11,36,27,18,36,18,10,99,78,63,29.98,29.84,29.64,10,10,7,29,21,37,0.26,5,Snow,281
2012-11-12,27,22,17,16,14,11,87,72,55,30.29,30.11,29.97,10,9,3,26,17,33,0.00,3,Snow,271
2012-11-13,44,30,16,29,21,13,88,69,35,30.29,30.26,30.21,10,10,10,16,6,22,0.00,3,,186
2012-11-14,50,38,26,32,28,22,90,65,39,30.25,30.20,30.11,10,10,10,13,5,,0.00,3,,197
2012-11-15,43,32,20,32,26,17,91,73,45,30.47,30.30,30.10,10,10,10,17,11,21,0.00,0,,314
2012-11-16,46,30,15,31,20,13,92,68,31,30.48,30.36,30.24,10,10,10,17,6,23,0.00,0,,166
2012-11-17,55,45,35,34,32,31,86,63,41,30.24,30.15,30.08,10,10,7,28,16,34,0.00,0,,172
2012-11-18,56,47,38,34,32,28,72,57,41,30.09,30.04,30.00,10,10,10,21,16,25,0.00,0,,174
2012-11-19,56,46,35,37,35,32,91,72,49,30.14,30.03,29.97,10,10,7,14,8,17,0.00,0,,269
2012-11-20,58,41,24,36,28,16,100,67,20,30.20,30.12,29.99,10,8,4,20,8,26,0.00,0,,207
2012-11-21,67,54,40,40,35,31,78,54,25,29.99,29.86,29.67,10,10,10,25,16,32,0.00,0,,197
2012-11-22,52,39,25,39,32,18,94,71,58,30.16,29.85,29.64,10,10,4,33,21,47,0.00,4,Rain,279
2012-11-23,25,18,10,17,12,8,90,72,58,30.42,30.35,30.17,10,10,10,34,22,45,0.00,4,,316
2012-11-24,35,22,9,19,14,6,91,66,43,30.35,30.03,29.79,10,10,10,23,7,32,0.00,4,,188
2012-11-25,36,30,23,28,22,18,89,76,53,30.18,30.00,29.84,10,10,10,20,11,25,0.00,4,,320
2012-11-26,24,16,9,19,8,4,84,68,49,30.43,30.34,30.19,10,10,10,20,12,23,0.00,2,,309
2012-11-27,34,24,14,23,17,8,95,76,63,30.31,30.19,30.08,10,10,10,22,13,28,0.00,0,,242
2012-11-28,40,25,10,28,20,10,100,78,52,30.32,30.19,30.03,10,8,0,17,7,22,0.00,0,Fog,187
2012-11-29,38,28,18,25,22,16,93,75,57,30.05,30.01,29.95,10,9,7,14,6,,0.00,1,,33
2012-11-30,40,30,20,33,27,19,99,89,68,30.14,30.04,29.95,7,5,3,17,8,,0.00,1,,79